This demonstration page uses our WeatherBlox Daily Observations layout. Learn more.

Left ArrowRight Arrow

Hourly Observations for May 21, 2018

Temp ( °F °C ) Dew Point ( °F °C ) Humidity (%) Winds ( mph kmh ) Pressure ( in mb ) Visibility ( mi km ) Precip ( " mm )
12:25 am 00:25 Cloudy 54 12 52 11 94 94 NNE 3 6 30.09 1019 7 11 0.00 0.00
12:53 am 00:53 Cloudy 53 11.7 52 11.1 96 96 Calm 30.11 1020 7 11 0.00 0.00
1:31 am 01:31 Partly Cloudy with Mist and Fog 52 11 52 11 100 100 Calm 30.09 1019 5 8 0.00 0.00
1:53 am 01:53 Mostly Clear with Mist and Fog 51 10.6 50 10 96 96 Calm 30.09 1019 5 8 0.00 0.00
2:24 am 02:24 Clear with Mist and Fog 50 10 48 9 94 94 Calm 30.12 1020 2 3 0.00 0.00
2:36 am 02:36 Mostly Clear with Mist and Fog 50 10 48 9 94 94 Calm 30.12 1020 2 3 0.00 0.00
2:39 am 02:39 Mostly Cloudy with Mist and Fog 50 10 49 9.4 96 96 Calm 30.12 1020 1 1 0.00 0.00
2:50 am 02:50 Mostly Cloudy with Mist and Fog 50 10 48 9 94 94 Calm 30.12 1020 2 3 0.00 0.00
2:53 am 02:53 Mostly Cloudy with Mist and Fog 50 10 49 9.4 96 96 WSW 3 6 30.09 1019 2 2 0.00 0.00
3:05 am 03:05 Mostly Cloudy with Fog 50 10 50 10 100 100 WSW 5 7 30.12 1020 0 0 0.00 0.00
3:53 am 03:53 Mostly Cloudy with Fog 49 9.4 49 9.4 100 100 Calm 30.09 1019 1 1 0.00 0.00
4:03 am 04:03 Cloudy with Mist and Fog 49 9.4 48 8.9 97 97 W 3 6 30.12 1020 1 2 0.00 0.00
4:10 am 04:10 Cloudy with Fog 48 9 48 9 100 100 W 5 7 30.12 1020 1 1 0.00 0.00
4:42 am 04:42 Cloudy with Fog 48 9 48 9 100 100 Calm 30.12 1020 1 1 0.00 0.00
4:51 am 04:51 Cloudy with Mist and Fog 48 9 48 9 100 100 WSW 5 7 30.12 1020 2 2 0.00 0.00
4:53 am 04:53 Cloudy with Mist and Fog 49 9.4 49 9.4 100 100 WSW 5 7 30.10 1019 2 3 0.00 0.00
5:01 am 05:01 Mostly Cloudy with Mist and Fog 49 9.4 49 9.4 100 100 WSW 5 7 30.12 1020 4 6 0.00 0.00
5:16 am 05:16 Partly Cloudy with Mist and Fog 48 9 48 9 100 100 WSW 5 7 30.12 1020 4 6 0.00 0.00
5:53 am 05:53 Clear with Mist and Fog 49 9.4 48 8.9 97 97 W 3 6 30.08 1019 6 10 0.00 0.00
6:50 am 06:50 Partly Cloudy with Mist and Fog 48 9 48 9 100 100 W 3 6 30.12 1020 3 4 0.00 0.00
6:53 am 06:53 Mostly Cloudy with Mist and Fog 49 9.4 49 9.4 100 100 W 6 9 30.09 1019 1 2 0.00 0.00
7:00 am 07:00 Mostly Cloudy with Fog 48 9 48 9 100 100 W 7 11 30.12 1020 0 0 0.00 0.00
7:53 am 07:53 Mostly Cloudy with Fog 50 10 50 10 100 100 W 3 6 30.09 1019 0 0 0.00 0.00
8:53 am 08:53 Mostly Cloudy with Fog 51 10.6 51 10.6 100 100 WSW 3 6 30.10 1019 0 0 0.00 0.00
9:25 am 09:25 Cloudy with Mist and Fog 53 11.7 52 11.1 96 96 W 5 7 30.09 1019 2 3 0.00 0.00
9:33 am 09:33 Cloudy 54 12 54 12 100 100 SW 3 6 30.09 1019 7 11 0.00 0.00
9:53 am 09:53 Mostly Cloudy 55 12.8 54 12.2 96 96 SW 3 6 30.09 1019 10 16 0.00 0.00
10:06 am 10:06 Partly Cloudy 56 13.3 54 12.2 93 93 Calm 30.09 1019 10 16 0.00 0.00
10:14 am 10:14 Mostly Cloudy 57 14 54 12 88 88 W 5 7 30.09 1019 10 16 0.00 0.00
10:21 am 10:21 Partly Cloudy 59 15 55 12.8 87 87 VRB 3 6 30.06 1018 10 16 0.00 0.00
10:53 am 10:53 Mostly Sunny 61 16.1 54 12.2 78 78 VRB 3 6 30.08 1019 10 16 0.00 0.00
11:53 am 11:53 Mostly Sunny 63 17.2 55 12.8 76 76 S 6 9 30.06 1018 10 16 0.00 0.00
12:53 pm 12:53 Sunny 66 18.9 55 12.8 68 68 SSW 7 11 30.06 1018 10 16 0.00 0.00
1:53 pm 13:53 Sunny 69 20.6 55 12.8 61 61 S 8 13 30.04 1017 10 16 0.00 0.00
2:53 pm 14:53 Sunny 71 21.7 57 13.9 61 61 S 8 13 30.01 1016 10 16 0.00 0.00
3:53 pm 15:53 Sunny 73 22.8 56 13.3 55 55 SSW 7 11 29.98 1015 10 16 0.00 0.00
4:53 pm 16:53 Sunny 75 23.9 57 13.9 54 54 S 8 13 29.96 1015 10 16 0.00 0.00
5:53 pm 17:53 Partly Cloudy 75 23.9 58 14.4 55 55 S 7 11 29.95 1014 10 16 0.00 0.00
6:53 pm 18:53 Mostly Sunny 76 24.4 57 13.9 52 52 SSW 7 11 29.94 1014 10 16 0.00 0.00
7:53 pm 19:53 Partly Cloudy 74 23.3 58 14.4 57 57 SSE 7 11 29.93 1014 10 16 0.00 0.00
8:53 pm 20:53 Clear 71 21.7 59 15 66 66 SE 8 13 29.94 1014 10 16 0.00 0.00
9:53 pm 21:53 Clear 69 20.6 58 14.4 68 68 SE 9 15 29.96 1015 10 16 0.00 0.00
10:53 pm 22:53 Clear 69 20.6 58 14.4 68 68 SSE 13 20 29.95 1014 10 16 0.00 0.00
11:53 pm 23:53 Clear 67 19.4 58 14.4 73 73 SSE 12 19 29.95 1014 10 16 0.00 0.00

Powered by AerisWeather